When you browse on this site, cookies collect data to enhance your experience and personalize the content and advertising you see.
Visit our Privacy Policy to learn more. By continuing to use the site, you agree to this use of cookies and data.
  • în România
  • Lista ţărilor
  • Pe 7 zile
  • Temperatura apei
  • Hartă satelitară
  • Meteo pe hartă
  • Widget-uri
  • user-avatar
    Intrare

    Meteo pe oră la Bucureşti

    Astăzi, 12 Decembrie, Miercuri

    Timp Temperatura Precipitaţii Vânt Presiune Umiditate
    00:00 +3°C° 0.3 mm 1 m/s 754 mmHg 89%
    01:00 +1°C° 0.3 mm 0 m/s 754 mmHg 89%
    02:00 +2°C° 0 mm 1 m/s 754 mmHg 90%
    03:00 +2°C° 0.3 mm 1 m/s 754 mmHg 90%
    04:00 +2°C° 0.3 mm 1 m/s 754 mmHg 90%
    05:00 +2°C° 0.3 mm 1 m/s 754 mmHg 90%
    06:00 +2°C° 0.1 mm 1 m/s 755 mmHg 90%
    07:00 +2°C° 0.1 mm 1 m/s 755 mmHg 90%
    08:00 +2°C° 0 mm 1 m/s 755 mmHg 91%
    09:00 +2°C° 0.1 mm 1 m/s 755 mmHg 89%
    10:00 +3°C° 0.1 mm 1 m/s 755 mmHg 87%
    11:00 +2°C° 0.1 mm 2 m/s 756 mmHg 85%
    12:00 +3°C° 0 mm 2 m/s 756 mmHg 83%
    13:00 +3°C° 0 mm 2 m/s 756 mmHg 81%
    14:00 +2°C° 0 mm 3 m/s 756 mmHg 79%
    15:00 +2°C° 0 mm 3 m/s 756 mmHg 81%
    16:00 +2°C° 0 mm 2 m/s 756 mmHg 84%
    17:00 +1°C° 0 mm 2 m/s 756 mmHg 86%
    18:00 +1°C° 0 mm 2 m/s 756 mmHg 86%
    19:00 +1°C° 0 mm 2 m/s 756 mmHg 86%
    20:00 -1°C° 0 mm 2 m/s 756 mmHg 86%
    21:00 -1°C° 0 mm 2 m/s 757 mmHg 86%
    22:00 -1°C° 0 mm 2 m/s 757 mmHg 85%
    23:00 -1°C° 0 mm 2 m/s 757 mmHg 84%

    Mâine, 13 Decembrie, Joi

    Timp Temperatura Precipitaţii Vânt Presiune Umiditate
    00:00 -1°C° 0 mm 2 m/s 757 mmHg 83%
    01:00 -1°C° 0 mm 2 m/s 757 mmHg 83%
    02:00 -1°C° 0 mm 2 m/s 757 mmHg 82%
    03:00 -1°C° 0 mm 2 m/s 757 mmHg 82%
    04:00 -1°C° 0 mm 2 m/s 757 mmHg 82%
    05:00 -1°C° 0 mm 2 m/s 757 mmHg 81%
    06:00 -2°C° 0 mm 2 m/s 758 mmHg 82%
    07:00 -2°C° 0 mm 2 m/s 758 mmHg 82%
    08:00 -2°C° 0 mm 2 m/s 758 mmHg 82%
    09:00 -1°C° 0 mm 3 m/s 758 mmHg 78%
    10:00 0°C° 0 mm 3 m/s 758 mmHg 74%
    11:00 +1°C° 0 mm 3 m/s 758 mmHg 70%
    12:00 +2°C° 0 mm 3 m/s 758 mmHg 68%
    13:00 +2°C° 0 mm 3 m/s 757 mmHg 66%
    14:00 +3°C° 0 mm 3 m/s 757 mmHg 64%
    15:00 +2°C° 0 mm 3 m/s 757 mmHg 68%
    16:00 +2°C° 0 mm 2 m/s 757 mmHg 73%
    17:00 +1°C° 0 mm 2 m/s 758 mmHg 78%
    18:00 +1°C° 0 mm 2 m/s 758 mmHg 78%
    19:00 -1°C° 0 mm 2 m/s 758 mmHg 78%
    20:00 -1°C° 0 mm 2 m/s 758 mmHg 79%
    21:00 -1°C° 0 mm 2 m/s 758 mmHg 78%
    22:00 +1°C° 0 mm 1 m/s 758 mmHg 77%
    23:00 +1°C° 0 mm 1 m/s 758 mmHg 76%

    Poimâine, 14 Decembrie, Vineri

    Timp Temperatura Precipitaţii Vânt Presiune Umiditate
    00:00 +1°C° 0 mm 1 m/s 758 mmHg 75%
    01:00 +1°C° 0 mm 1 m/s 759 mmHg 74%
    02:00 +1°C° 0 mm 1 m/s 759 mmHg 73%
    03:00 0°C° 0 mm 1 m/s 759 mmHg 72%
    04:00 -1°C° 0 mm 0 m/s 759 mmHg 72%
    05:00 -1°C° 0 mm 0 m/s 759 mmHg 72%
    06:00 0°C° 0 mm 1 m/s 759 mmHg 71%
    07:00 0°C° 0 mm 1 m/s 759 mmHg 70%
    08:00 0°C° 0 mm 1 m/s 760 mmHg 69%
    09:00 +1°C° 0 mm 1 m/s 760 mmHg 65%
    10:00 +1°C° 0 mm 2 m/s 760 mmHg 61%
    11:00 +2°C° 0 mm 2 m/s 760 mmHg 57%
    12:00 +3°C° 0 mm 2 m/s 760 mmHg 57%
    13:00 +3°C° 0 mm 2 m/s 760 mmHg 57%
    14:00 +2°C° 0 mm 3 m/s 760 mmHg 57%
    15:00 +1°C° 0 mm 3 m/s 760 mmHg 61%
    16:00 0°C° 0 mm 3 m/s 760 mmHg 66%
    17:00 -1°C° 0 mm 3 m/s 760 mmHg 71%
    18:00 -1°C° 0 mm 3 m/s 760 mmHg 72%
    19:00 -2°C° 0 mm 4 m/s 761 mmHg 72%
    20:00 -2°C° 0 mm 4 m/s 761 mmHg 73%
    21:00 -2°C° 0 mm 4 m/s 761 mmHg 73%
    22:00 -2°C° 0 mm 4 m/s 761 mmHg 73%
    23:00 -2°C° 0 mm 5 m/s 761 mmHg 73%

    15 Decembrie, Sâmbătă

    Timp Temperatura Precipitaţii Vânt Presiune Umiditate
    00:00 -1°C° 0.1 mm 5 m/s 761 mmHg 75%
    01:00 -1°C° 0.1 mm 5 m/s 761 mmHg 78%
    02:00 -2°C° 0.1 mm 6 m/s 761 mmHg 80%
    03:00 -2°C° 0.3 mm 6 m/s 760 mmHg 82%
    04:00 -2°C° 0.3 mm 6 m/s 760 mmHg 84%
    05:00 -2°C° 0.3 mm 6 m/s 760 mmHg 87%
    06:00 -2°C° 0.5 mm 6 m/s 760 mmHg 88%
    07:00 -2°C° 0.5 mm 7 m/s 760 mmHg 89%
    08:00 -2°C° 0.5 mm 7 m/s 760 mmHg 89%
    09:00 -2°C° 0.8 mm 7 m/s 760 mmHg 90%
    10:00 -2°C° 0.8 mm 7 m/s 760 mmHg 90%
    11:00 -1°C° 0.8 mm 7 m/s 760 mmHg 91%
    12:00 -1°C° 0.5 mm 7 m/s 760 mmHg 91%
    13:00 -1°C° 0.5 mm 7 m/s 760 mmHg 92%
    14:00 -1°C° 0.5 mm 7 m/s 759 mmHg 92%
    15:00 -1°C° 0.3 mm 7 m/s 759 mmHg 92%
    16:00 -1°C° 0.3 mm 7 m/s 759 mmHg 92%
    17:00 -1°C° 0.3 mm 7 m/s 759 mmHg 92%
    18:00 -1°C° 0.6 mm 8 m/s 759 mmHg 92%
    19:00 0°C° 0.6 mm 8 m/s 759 mmHg 92%
    20:00 0°C° 0.6 mm 8 m/s 759 mmHg 93%
    21:00 0°C° 0.8 mm 8 m/s 759 mmHg 93%
    22:00 0°C° 0.8 mm 8 m/s 759 mmHg 93%
    23:00 0°C° 0.8 mm 7 m/s 759 mmHg 94%

    16 Decembrie, Duminică

    Timp Temperatura Precipitaţii Vânt Presiune Umiditate
    00:00 +1°C° 0.7 mm 8 m/s 759 mmHg 94%
    01:00 +1°C° 0.7 mm 8 m/s 759 mmHg 93%
    02:00 +1°C° 0.7 mm 8 m/s 759 mmHg 93%
    03:00 0°C° 0.4 mm 8 m/s 759 mmHg 92%
    04:00 0°C° 0.4 mm 8 m/s 759 mmHg 92%
    05:00 0°C° 0.4 mm 8 m/s 759 mmHg 91%
    06:00 0°C° 0.3 mm 8 m/s 759 mmHg 90%
    07:00 0°C° 0.3 mm 8 m/s 760 mmHg 90%
    08:00 0°C° 0.3 mm 8 m/s 760 mmHg 89%
    09:00 0°C° 0.2 mm 8 m/s 760 mmHg 88%
    10:00 0°C° 0.2 mm 8 m/s 761 mmHg 88%
    11:00 0°C° 0.2 mm 8 m/s 761 mmHg 87%
    12:00 0°C° 0.1 mm 8 m/s 761 mmHg 87%
    13:00 0°C° 0.1 mm 7 m/s 761 mmHg 86%
    14:00 0°C° 0.1 mm 7 m/s 761 mmHg 86%
    15:00 0°C° 0.1 mm 7 m/s 761 mmHg 85%
    16:00 0°C° 0.1 mm 7 m/s 762 mmHg 85%
    17:00 -1°C° 0.1 mm 6 m/s 762 mmHg 84%
    18:00 -1°C° 0 mm 6 m/s 762 mmHg 84%
    19:00 -1°C° 0 mm 6 m/s 763 mmHg 84%
    20:00 -1°C° 0 mm 6 m/s 763 mmHg 83%
    21:00 0°C° 0 mm 5 m/s 763 mmHg 84%
    22:00 0°C° 0 mm 5 m/s 763 mmHg 85%
    23:00 0°C° 0 mm 5 m/s 764 mmHg 86%

    17 Decembrie, Luni

    Timp Temperatura Precipitaţii Vânt Presiune Umiditate
    00:00 -1°C° 0 mm 5 m/s 763 mmHg 86%
    01:00 -1°C° 0 mm 4 m/s 763 mmHg 87%
    02:00 -1°C° 0 mm 4 m/s 763 mmHg 88%
    03:00 -1°C° 0 mm 4 m/s 763 mmHg 89%
    04:00 -1°C° 0 mm 3 m/s 763 mmHg 89%
    05:00 -1°C° 0 mm 3 m/s 763 mmHg 90%
    06:00 -1°C° 0 mm 3 m/s 763 mmHg 90%
    07:00 -1°C° 0 mm 3 m/s 763 mmHg 91%
    08:00 -1°C° 0 mm 3 m/s 763 mmHg 91%
    09:00 -1°C° 0 mm 2 m/s 763 mmHg 90%
    10:00 +1°C° 0 mm 2 m/s 763 mmHg 88%
    11:00 +1°C° 0 mm 2 m/s 763 mmHg 87%
    12:00 +2°C° 0 mm 2 m/s 762 mmHg 86%
    13:00 +3°C° 0 mm 2 m/s 762 mmHg 85%
    14:00 +3°C° 0 mm 2 m/s 761 mmHg 84%
    15:00 +3°C° 0 mm 2 m/s 761 mmHg 85%
    16:00 +2°C° 0 mm 2 m/s 761 mmHg 87%
    17:00 +2°C° 0 mm 2 m/s 761 mmHg 89%
    18:00 +2°C° 0 mm 2 m/s 761 mmHg 90%
    19:00 +2°C° 0 mm 2 m/s 761 mmHg 91%
    20:00 +1°C° 0 mm 2 m/s 761 mmHg 92%
    21:00 +1°C° 0 mm 2 m/s 761 mmHg 92%
    22:00 +1°C° 0 mm 2 m/s 761 mmHg 92%
    23:00 +1°C° 0 mm 2 m/s 761 mmHg 92%
    Arată mai mult